STARLINK-32477, 62038

Orbit data source: Space-Track

STARLINK-32477, 62038 is a payload satellite owned by SpaceX/Seattle (US) in LEO that was launched on Thu, 21 Nov 2024 UTC via an FALCON 9 launch vehicle from the Air Force Eastern Test Range (AFETR). Payload-class satellites include a variety of spacecraft equipped with specific instruments for various scientific and technological missions. These include communications satellites like Starlink; space stations such as the ISS; scientific satellites like the Hubble; Earth observation satellites from companies like Planet Labs, Umbra, and HawkEye 360; GPS; miniature CubeSats for education and research; and military/defense satellites.

Loading next visibility...
Identifier
62038, 2024-216G
Orbit
LEO
Last TLE update
15 hours ago
Origin
Manufacturer
SpaceX/Seattle
Mission
Operational Commercial Communications
Bus & Motor
STARLINK V2M, Unknown motor
Mass
730 kg wet, ~700 kg dry
Launch date (UTC)
2024-11-21 (6 months ago)
Launch vehicle
FALCON 9
Launch site
Air Force Eastern Test Range (AFETR)
Object type
Payload
Rocket body
Debris
Shape & HBR
Box + 2 Pan, 29 m
Radar Cross Section
36.964 m², Large (>1 m²)

Expand to show TLE details & history

TLE from 15 hours ago
0 STARLINK-32477
1 62038U 24216G   25128.59708287 -.00000211  00000-0  22202-5 0  9996
2 62038  43.0026 185.5641 0001551 273.5143  86.5536 15.40694939 25980
Epoch: 2025-05-08T14:19Z
Definitive object data (Epoch: 2025-05-08T14:19:47.959Z)
Latitude
-0.00005°
Longitude
103.94892°
Altitude
443.768 km
Speed
7.648 km/s
True Right ascension
12h 22m 15s
True Declination
0° 00' 00"
Sunlit
Object was in full shadow at TLE epoch
Visualization TLE readout
Latitude
-30.90402°
Longitude
60.59899°
Altitude
451.541 km
Speed
7.642 km/s
Apparent Right ascension
06h 11m 08s
Apparent Declination
-52° 15' 24"
Sunlit
Object is in daylight
Visualization observer readout
Local Sidereal Time
13:49:26
Azimuth
231.478° WSW
Elevation
-44.641°
Doppler factor
1
Orbital elements
Apogee altitude
447.071 km
Perigee altitude
444.954 km
Semi-major axis
6,824.15 km
Eccentricity
0.0001551
Inclination
43.0026°
RAAN
185.5641°
Arg. of periapsis
273.5143°
True anomaly
86.57134°
Mean anomaly
86.5536°
Eccentric anomaly
86.56247°
Mean motion
3.85009 °/min
BSTAR
0.0000022202
Orbital period
93.5 mins
Loading maneuver chart data...
Loading SW <> Apogee altitude chart data...
Loading historical data...
Loading historical data...
Loading historical data...
Loading historical data...
Loading historical data...
Loading historical data...
Loading historical data...

STARLINK-32477 Visibility forecast

Observer location: undefined°, undefined°

Span
Click to sort rows by Start time (UTC) header in descending order
Start Az.
Max El. time (UTC)
Max El. Az.
Max El.
End time (UTC)
End Az.
5 mins2025-05-09 07:41:43.897Z232.114° WSW2025-05-09 07:43:43.897Z137.645° SSE41.775°2025-05-09 07:46:43.897Z75.871° E
5 mins2025-05-09 09:19:43.897Z284.972° WNW2025-05-09 09:21:43.897Z355.077° N38.28°2025-05-09 09:24:43.897Z70.352° E
5 mins2025-05-09 10:57:43.897Z293.934° NW2025-05-09 10:59:43.897Z340.461° N40.667°2025-05-09 11:02:43.897Z91.787° ESE
4 mins2025-05-09 12:36:43.897Z255.427° W2025-05-09 12:37:43.897Z222.507° SW31.339°2025-05-09 12:40:43.897Z142.884° SSE
|